Year,Month,Day,Hour,Minute,Value (Times are PST for temperature in C)
2019,05,27,00,00,16.90
2019,05,27,00,01,16.90
2019,05,27,00,02,16.90
2019,05,27,00,03,16.90
2019,05,27,00,04,16.80
2019,05,27,00,05,16.80
2019,05,27,00,06,16.90
2019,05,27,00,07,17.00
2019,05,27,00,08,17.00
2019,05,27,00,09,17.10
2019,05,27,00,10,17.20
2019,05,27,00,11,17.30
2019,05,27,00,12,17.30
2019,05,27,00,13,17.30
2019,05,27,00,14,17.40
2019,05,27,00,15,17.40
2019,05,27,00,16,17.40
2019,05,27,00,17,17.50
2019,05,27,00,18,17.50
2019,05,27,00,19,17.50
2019,05,27,00,20,17.50
2019,05,27,00,21,17.60
2019,05,27,00,22,17.60
2019,05,27,00,23,17.70
2019,05,27,00,24,17.70
2019,05,27,00,25,17.80
2019,05,27,00,26,17.80
2019,05,27,00,27,17.90
2019,05,27,00,28,17.90
2019,05,27,00,29,17.90
2019,05,27,00,30,18.00
2019,05,27,00,31,18.00
2019,05,27,00,32,18.00
2019,05,27,00,33,18.00
2019,05,27,00,34,18.00
2019,05,27,00,35,17.90
2019,05,27,00,36,17.90
2019,05,27,00,37,17.90
2019,05,27,00,38,17.90
2019,05,27,00,39,17.80
2019,05,27,00,40,17.80
2019,05,27,00,41,17.70
2019,05,27,00,42,17.70
2019,05,27,00,43,17.60
2019,05,27,00,44,17.60
2019,05,27,00,45,17.60
2019,05,27,00,46,17.50
2019,05,27,00,47,17.50
2019,05,27,00,48,17.50
2019,05,27,00,49,17.40
2019,05,27,00,50,17.40
2019,05,27,00,51,17.40
2019,05,27,00,52,17.40
2019,05,27,00,53,17.40
2019,05,27,00,54,17.30
2019,05,27,00,55,17.30
2019,05,27,00,56,17.30
2019,05,27,00,57,17.30
2019,05,27,00,58,17.30
2019,05,27,00,59,17.20
2019,05,27,01,00,17.20
2019,05,27,01,01,17.20
2019,05,27,01,02,17.10
2019,05,27,01,03,17.10
2019,05,27,01,04,17.10
2019,05,27,01,05,17.10
2019,05,27,01,06,17.10
2019,05,27,01,07,17.10
2019,05,27,01,08,17.10
2019,05,27,01,09,17.10
2019,05,27,01,10,17.00
2019,05,27,01,11,17.00
2019,05,27,01,12,17.00
2019,05,27,01,13,17.00
2019,05,27,01,14,17.00
2019,05,27,01,15,17.00
2019,05,27,01,16,16.90
2019,05,27,01,17,16.90
2019,05,27,01,18,16.90
2019,05,27,01,19,16.90
2019,05,27,01,20,16.90
2019,05,27,01,21,16.90
2019,05,27,01,22,16.90
2019,05,27,01,23,16.90
2019,05,27,01,24,16.90
2019,05,27,01,25,16.90
2019,05,27,01,26,16.90
2019,05,27,01,27,16.90
2019,05,27,01,28,16.90
2019,05,27,01,29,16.90
2019,05,27,01,30,16.90
2019,05,27,01,31,16.90
2019,05,27,01,32,16.90
2019,05,27,01,33,17.00
2019,05,27,01,34,17.00
2019,05,27,01,35,17.10
2019,05,27,01,36,17.10
2019,05,27,01,37,17.20
2019,05,27,01,38,17.20
2019,05,27,01,39,17.20
2019,05,27,01,40,17.20
2019,05,27,01,41,17.30
2019,05,27,01,42,17.30
2019,05,27,01,43,17.30
2019,05,27,01,44,17.30
2019,05,27,01,45,17.40
2019,05,27,01,46,17.40
2019,05,27,01,47,17.40
2019,05,27,01,48,17.40
2019,05,27,01,49,17.40
2019,05,27,01,50,17.50
2019,05,27,01,51,17.50
2019,05,27,01,52,17.50
2019,05,27,01,53,17.60
2019,05,27,01,54,17.60
2019,05,27,01,55,17.60
2019,05,27,01,56,17.60
2019,05,27,01,57,17.70
2019,05,27,01,58,17.70
2019,05,27,01,59,17.70
2019,05,27,02,00,17.70
2019,05,27,02,01,17.80
2019,05,27,02,02,17.80
2019,05,27,02,03,17.80
2019,05,27,02,04,17.80
2019,05,27,02,05,17.80
2019,05,27,02,06,17.80
2019,05,27,02,07,17.80
2019,05,27,02,08,17.80
2019,05,27,02,09,17.80
2019,05,27,02,10,17.70
2019,05,27,02,11,17.70
2019,05,27,02,12,17.70
2019,05,27,02,13,17.70
2019,05,27,02,14,17.70
2019,05,27,02,15,17.70
2019,05,27,02,16,17.60
2019,05,27,02,17,17.60
2019,05,27,02,18,17.60
2019,05,27,02,19,17.70
2019,05,27,02,20,17.70
2019,05,27,02,21,17.70
2019,05,27,02,22,17.70
2019,05,27,02,23,17.60
2019,05,27,02,24,17.60
2019,05,27,02,25,17.60
2019,05,27,02,26,17.60
2019,05,27,02,27,17.60
2019,05,27,02,28,17.60
2019,05,27,02,29,17.60
2019,05,27,02,30,17.60
2019,05,27,02,31,17.60
2019,05,27,02,32,17.60
2019,05,27,02,33,17.60
2019,05,27,02,34,17.60
2019,05,27,02,35,17.60
2019,05,27,02,36,17.60
2019,05,27,02,37,17.50
2019,05,27,02,38,17.50
2019,05,27,02,39,17.50
2019,05,27,02,40,17.50
2019,05,27,02,41,17.50
2019,05,27,02,42,17.60
2019,05,27,02,43,17.60
2019,05,27,02,44,17.60
2019,05,27,02,45,17.60
2019,05,27,02,46,17.50
2019,05,27,02,47,17.50
2019,05,27,02,48,17.50
2019,05,27,02,49,17.50
2019,05,27,02,50,17.50
2019,05,27,02,51,17.50
2019,05,27,02,52,17.50
2019,05,27,02,53,17.40
2019,05,27,02,54,17.40
2019,05,27,02,55,17.40
2019,05,27,02,56,17.40
2019,05,27,02,57,17.40
2019,05,27,02,58,17.40
2019,05,27,02,59,17.40
2019,05,27,03,00,17.40
2019,05,27,03,01,17.40
2019,05,27,03,02,17.40
2019,05,27,03,03,17.40
2019,05,27,03,04,17.40
2019,05,27,03,05,17.40
2019,05,27,03,06,17.40
2019,05,27,03,07,17.30
2019,05,27,03,08,17.30
2019,05,27,03,09,17.30
2019,05,27,03,10,17.30
2019,05,27,03,11,17.30
2019,05,27,03,12,17.30
2019,05,27,03,13,17.30
2019,05,27,03,14,17.30
2019,05,27,03,15,17.30
2019,05,27,03,16,17.30
2019,05,27,03,17,17.20
2019,05,27,03,18,17.20
2019,05,27,03,19,17.10
2019,05,27,03,20,17.10
2019,05,27,03,21,17.00
2019,05,27,03,22,17.00
2019,05,27,03,23,16.90
2019,05,27,03,24,16.90
2019,05,27,03,25,16.90
2019,05,27,03,26,16.90
2019,05,27,03,27,16.80
2019,05,27,03,28,16.80
2019,05,27,03,29,16.80
2019,05,27,03,30,16.70
2019,05,27,03,31,16.60
2019,05,27,03,32,16.50
2019,05,27,03,33,16.50
2019,05,27,03,34,16.40
2019,05,27,03,35,16.40
2019,05,27,03,36,16.30
2019,05,27,03,37,16.30
2019,05,27,03,38,16.30
2019,05,27,03,39,16.30
2019,05,27,03,40,16.20
2019,05,27,03,41,16.20
2019,05,27,03,42,16.20
2019,05,27,03,43,16.10
2019,05,27,03,44,16.10
2019,05,27,03,45,16.10
2019,05,27,03,46,16.00
2019,05,27,03,47,16.00
2019,05,27,03,48,15.90
2019,05,27,03,49,15.90
2019,05,27,03,50,15.90
2019,05,27,03,51,15.80
2019,05,27,03,52,15.80
2019,05,27,03,53,15.80
2019,05,27,03,54,15.70
2019,05,27,03,55,15.70
2019,05,27,03,56,15.70
2019,05,27,03,57,15.70
2019,05,27,03,58,15.70
2019,05,27,03,59,15.60
2019,05,27,04,00,15.60
2019,05,27,04,01,15.60
2019,05,27,04,02,15.60
2019,05,27,04,03,15.60
2019,05,27,04,04,15.60
2019,05,27,04,05,15.60
2019,05,27,04,06,15.60
2019,05,27,04,07,15.50
2019,05,27,04,08,15.50
2019,05,27,04,09,15.50
2019,05,27,04,10,15.40
2019,05,27,04,11,15.40
2019,05,27,04,12,15.40
2019,05,27,04,13,15.30
2019,05,27,04,14,15.30
2019,05,27,04,15,15.20
2019,05,27,04,16,15.20
2019,05,27,04,17,15.20
2019,05,27,04,18,15.10
2019,05,27,04,19,15.10
2019,05,27,04,20,15.00
2019,05,27,04,21,15.00
2019,05,27,04,22,15.00
2019,05,27,04,23,14.90
2019,05,27,04,24,14.90
2019,05,27,04,25,14.90
2019,05,27,04,26,14.90
2019,05,27,04,27,14.80
2019,05,27,04,28,14.80
2019,05,27,04,29,14.80
2019,05,27,04,30,14.80
2019,05,27,04,31,14.80
2019,05,27,04,32,14.80
2019,05,27,04,33,14.80
2019,05,27,04,34,14.70
2019,05,27,04,35,14.70
2019,05,27,04,36,14.70
2019,05,27,04,37,14.70
2019,05,27,04,38,14.70
2019,05,27,04,39,14.70
2019,05,27,04,40,14.70
2019,05,27,04,41,14.70
2019,05,27,04,42,14.70
2019,05,27,04,43,14.70
2019,05,27,04,44,14.70
2019,05,27,04,45,14.70
2019,05,27,04,46,14.70
2019,05,27,04,47,14.70
2019,05,27,04,48,14.70
2019,05,27,04,49,14.70
2019,05,27,04,50,14.70
2019,05,27,04,51,14.60
2019,05,27,04,52,14.60
2019,05,27,04,53,14.60
2019,05,27,04,54,14.60
2019,05,27,04,55,14.50
2019,05,27,04,56,14.50
2019,05,27,04,57,14.50
2019,05,27,04,58,14.50
2019,05,27,04,59,14.50
2019,05,27,05,00,14.40
2019,05,27,05,01,14.40
2019,05,27,05,02,14.40
2019,05,27,05,03,14.40
2019,05,27,05,04,14.30
2019,05,27,05,05,14.30
2019,05,27,05,06,14.30
2019,05,27,05,07,14.30
2019,05,27,05,08,14.20
2019,05,27,05,09,14.20
2019,05,27,05,10,14.20
2019,05,27,05,11,14.20
2019,05,27,05,12,14.10
2019,05,27,05,13,14.10
2019,05,27,05,14,14.10
2019,05,27,05,15,14.10
2019,05,27,05,16,14.00
2019,05,27,05,17,14.00
2019,05,27,05,18,14.00
2019,05,27,05,19,13.90
2019,05,27,05,20,13.90
2019,05,27,05,21,13.90
2019,05,27,05,22,13.90
2019,05,27,05,23,13.90
2019,05,27,05,24,13.80
2019,05,27,05,25,13.80
2019,05,27,05,26,13.80
2019,05,27,05,27,13.80
2019,05,27,05,28,13.80
2019,05,27,05,29,13.80
2019,05,27,05,30,13.80
2019,05,27,05,31,13.80
2019,05,27,05,32,13.80
2019,05,27,05,33,13.80
2019,05,27,05,34,13.80
2019,05,27,05,35,13.80
2019,05,27,05,36,13.70
2019,05,27,05,37,13.70
2019,05,27,05,38,13.70
2019,05,27,05,39,13.70
2019,05,27,05,40,13.70
2019,05,27,05,41,13.70
2019,05,27,05,42,13.60
2019,05,27,05,43,13.60
2019,05,27,05,44,13.60
2019,05,27,05,45,13.60
2019,05,27,05,46,13.60
2019,05,27,05,47,13.60
2019,05,27,05,48,13.60
2019,05,27,05,49,13.60
2019,05,27,05,50,13.60
2019,05,27,05,51,13.70
2019,05,27,05,52,13.70
2019,05,27,05,53,13.70
2019,05,27,05,54,13.70
2019,05,27,05,55,13.70
2019,05,27,05,56,13.70
2019,05,27,05,57,13.70
2019,05,27,05,58,13.80
2019,05,27,05,59,13.80
2019,05,27,06,00,13.80
2019,05,27,06,01,13.90
2019,05,27,06,02,13.90
2019,05,27,06,03,13.90
2019,05,27,06,04,13.90
2019,05,27,06,05,13.90
2019,05,27,06,06,13.90
2019,05,27,06,07,13.90
2019,05,27,06,08,14.00
2019,05,27,06,09,14.00
2019,05,27,06,10,14.00
2019,05,27,06,11,14.00
2019,05,27,06,12,14.10
2019,05,27,06,13,14.10
2019,05,27,06,14,14.10
2019,05,27,06,15,14.20
2019,05,27,06,16,14.20
2019,05,27,06,17,14.20
2019,05,27,06,18,14.20
2019,05,27,06,19,14.30
2019,05,27,06,20,14.30
2019,05,27,06,21,14.30
2019,05,27,06,22,14.40
2019,05,27,06,23,14.40
2019,05,27,06,24,14.50
2019,05,27,06,25,14.50
2019,05,27,06,26,14.50
2019,05,27,06,27,14.60
2019,05,27,06,28,14.60
2019,05,27,06,29,14.60
2019,05,27,06,30,14.70
2019,05,27,06,31,14.70
2019,05,27,06,32,14.70
2019,05,27,06,33,14.70
2019,05,27,06,34,14.80
2019,05,27,06,35,14.80
2019,05,27,06,36,14.80
2019,05,27,06,37,14.90
2019,05,27,06,38,15.00
2019,05,27,06,39,15.10
2019,05,27,06,40,15.20
2019,05,27,06,41,15.30
2019,05,27,06,42,15.40
2019,05,27,06,43,15.40
2019,05,27,06,44,15.50
2019,05,27,06,45,15.50
2019,05,27,06,46,15.60
2019,05,27,06,47,15.60
2019,05,27,06,48,15.60
2019,05,27,06,49,15.60
2019,05,27,06,50,15.70
2019,05,27,06,51,15.80
2019,05,27,06,52,15.90
2019,05,27,06,53,16.00
2019,05,27,06,54,16.10
2019,05,27,06,55,16.10
2019,05,27,06,56,16.20
2019,05,27,06,57,16.20
2019,05,27,06,58,16.20
2019,05,27,06,59,16.30
2019,05,27,07,00,16.30
2019,05,27,07,01,16.30
2019,05,27,07,02,16.40
2019,05,27,07,03,16.50
2019,05,27,07,04,16.60
2019,05,27,07,05,16.60
2019,05,27,07,06,16.70
2019,05,27,07,07,16.70
2019,05,27,07,08,16.80
2019,05,27,07,09,16.90
2019,05,27,07,10,17.00
2019,05,27,07,11,17.00
2019,05,27,07,12,17.10
2019,05,27,07,13,17.20
2019,05,27,07,14,17.20
2019,05,27,07,15,17.20
2019,05,27,07,16,17.30
2019,05,27,07,17,17.30
2019,05,27,07,18,17.30
2019,05,27,07,19,17.20
2019,05,27,07,20,17.20
2019,05,27,07,21,17.20
2019,05,27,07,22,17.20
2019,05,27,07,23,17.20
2019,05,27,07,24,17.20
2019,05,27,07,25,17.10
2019,05,27,07,26,17.10
2019,05,27,07,27,17.10
2019,05,27,07,28,17.10
2019,05,27,07,29,17.20
2019,05,27,07,30,17.20
2019,05,27,07,31,17.20
2019,05,27,07,32,17.20
2019,05,27,07,33,17.20
2019,05,27,07,34,17.30
2019,05,27,07,35,17.30
2019,05,27,07,36,17.30
2019,05,27,07,37,17.30
2019,05,27,07,38,17.40
2019,05,27,07,39,17.40
2019,05,27,07,40,17.40
2019,05,27,07,41,17.40
2019,05,27,07,42,17.40
2019,05,27,07,43,17.50
2019,05,27,07,44,17.50
2019,05,27,07,45,17.50
2019,05,27,07,46,17.50
2019,05,27,07,47,17.50
2019,05,27,07,48,17.50
2019,05,27,07,49,17.60
2019,05,27,07,50,17.60
2019,05,27,07,51,17.60
2019,05,27,07,52,17.70
2019,05,27,07,53,17.70
2019,05,27,07,54,17.80
2019,05,27,07,55,17.90
2019,05,27,07,56,18.00
2019,05,27,07,57,18.10
2019,05,27,07,58,18.10
2019,05,27,07,59,18.10
2019,05,27,08,00,18.10
2019,05,27,08,01,18.10
2019,05,27,08,02,18.10
2019,05,27,08,03,18.10
2019,05,27,08,04,18.10
2019,05,27,08,05,18.00
2019,05,27,08,06,18.00
2019,05,27,08,07,17.90
2019,05,27,08,08,17.80
2019,05,27,08,09,17.80
2019,05,27,08,10,17.80
2019,05,27,08,11,17.70
2019,05,27,08,12,17.70
2019,05,27,08,13,17.70
2019,05,27,08,14,17.70
2019,05,27,08,15,17.70
2019,05,27,08,16,17.70
2019,05,27,08,17,17.70
2019,05,27,08,18,17.70
2019,05,27,08,19,17.80
2019,05,27,08,20,17.80
2019,05,27,08,21,17.80
2019,05,27,08,22,17.80
2019,05,27,08,23,17.70
2019,05,27,08,24,17.70
2019,05,27,08,25,17.70
2019,05,27,08,26,17.70
2019,05,27,08,27,17.70
2019,05,27,08,28,17.70
2019,05,27,08,29,17.70
2019,05,27,08,30,17.70
2019,05,27,08,31,17.70
2019,05,27,08,32,17.60
2019,05,27,08,33,17.60
2019,05,27,08,34,17.60
2019,05,27,08,35,17.60
2019,05,27,08,36,17.50
2019,05,27,08,37,17.50
2019,05,27,08,38,17.50
2019,05,27,08,39,17.50
2019,05,27,08,40,17.60
2019,05,27,08,41,17.70
2019,05,27,08,42,17.80
2019,05,27,08,43,17.80
2019,05,27,08,44,17.90
2019,05,27,08,45,18.00
2019,05,27,08,46,18.00
2019,05,27,08,47,18.10
2019,05,27,08,48,18.10
2019,05,27,08,49,18.00
2019,05,27,08,50,18.00
2019,05,27,08,51,17.90
2019,05,27,08,52,17.90
2019,05,27,08,53,17.90
2019,05,27,08,54,17.90
2019,05,27,08,55,17.90
2019,05,27,08,56,18.00
2019,05,27,08,57,18.10
2019,05,27,08,58,18.20
2019,05,27,08,59,18.20
2019,05,27,09,00,18.30
2019,05,27,09,01,18.40
2019,05,27,09,02,18.50
2019,05,27,09,03,18.60
2019,05,27,09,04,18.60
2019,05,27,09,05,18.70
2019,05,27,09,06,18.60
2019,05,27,09,07,18.50
2019,05,27,09,08,18.40
2019,05,27,09,09,18.30
2019,05,27,09,10,18.20
2019,05,27,09,11,18.20
2019,05,27,09,12,18.20
2019,05,27,09,13,18.30
2019,05,27,09,14,18.40
2019,05,27,09,15,18.40
2019,05,27,09,16,18.60
2019,05,27,09,17,18.70
2019,05,27,09,18,18.80
2019,05,27,09,19,18.90
2019,05,27,09,20,19.00
2019,05,27,09,21,19.10
2019,05,27,09,22,19.10
2019,05,27,09,23,19.10
2019,05,27,09,24,19.00
2019,05,27,09,25,18.90
2019,05,27,09,26,18.80
2019,05,27,09,27,18.60
2019,05,27,09,28,18.50
2019,05,27,09,29,18.40
2019,05,27,09,30,18.30
2019,05,27,09,31,18.20
2019,05,27,09,32,18.20
2019,05,27,09,33,18.10
2019,05,27,09,34,18.10
2019,05,27,09,35,18.10
2019,05,27,09,36,18.00
2019,05,27,09,37,17.90
2019,05,27,09,38,17.90
2019,05,27,09,39,17.80
2019,05,27,09,40,17.70
2019,05,27,09,41,17.70
2019,05,27,09,42,17.60
2019,05,27,09,43,17.60
2019,05,27,09,44,17.60
2019,05,27,09,45,17.70
2019,05,27,09,46,17.70
2019,05,27,09,47,17.60
2019,05,27,09,48,17.60
2019,05,27,09,49,17.50
2019,05,27,09,50,17.50
2019,05,27,09,51,17.50
2019,05,27,09,52,17.50
2019,05,27,09,53,17.70
2019,05,27,09,54,17.80
2019,05,27,09,55,17.80
2019,05,27,09,56,17.90
2019,05,27,09,57,17.90
2019,05,27,09,58,17.90
2019,05,27,09,59,17.90
2019,05,27,10,00,18.00
2019,05,27,10,01,18.10
2019,05,27,10,02,18.10
2019,05,27,10,03,18.10
2019,05,27,10,04,18.00
2019,05,27,10,05,17.90
2019,05,27,10,06,17.80
2019,05,27,10,07,17.70
2019,05,27,10,08,17.60
2019,05,27,10,09,17.50
2019,05,27,10,10,17.50
2019,05,27,10,11,17.50
2019,05,27,10,12,17.60
2019,05,27,10,13,17.70
2019,05,27,10,14,17.80
2019,05,27,10,15,17.90
2019,05,27,10,16,18.00
2019,05,27,10,17,18.00
2019,05,27,10,18,18.00
2019,05,27,10,19,18.00
2019,05,27,10,20,18.00
2019,05,27,10,21,18.00
2019,05,27,10,22,17.90
2019,05,27,10,23,17.90
2019,05,27,10,24,17.90
2019,05,27,10,25,17.80
2019,05,27,10,26,17.80
2019,05,27,10,27,17.80
2019,05,27,10,28,17.70
2019,05,27,10,29,17.60
2019,05,27,10,30,17.60
2019,05,27,10,31,17.50
2019,05,27,10,32,17.40
2019,05,27,10,33,17.40
2019,05,27,10,34,17.30
2019,05,27,10,35,17.30
2019,05,27,10,36,17.30
2019,05,27,10,37,17.30
2019,05,27,10,38,17.30
2019,05,27,10,39,17.30
2019,05,27,10,40,17.30
2019,05,27,10,41,17.30
2019,05,27,10,42,17.30
2019,05,27,10,43,17.40
2019,05,27,10,44,17.40
2019,05,27,10,45,17.50
2019,05,27,10,46,17.70
2019,05,27,10,47,17.90
2019,05,27,10,48,18.00
2019,05,27,10,49,18.20
2019,05,27,10,50,18.40
2019,05,27,10,51,18.60
2019,05,27,10,52,18.70
2019,05,27,10,53,18.80
2019,05,27,10,54,18.90
2019,05,27,10,55,19.00
2019,05,27,10,56,19.10
2019,05,27,10,57,19.20
2019,05,27,10,58,19.30
2019,05,27,10,59,19.40
2019,05,27,11,00,19.50
2019,05,27,11,01,19.60
2019,05,27,11,02,19.70
2019,05,27,11,03,19.80
2019,05,27,11,04,19.90
2019,05,27,11,05,19.90
2019,05,27,11,06,20.00
2019,05,27,11,07,20.10
2019,05,27,11,08,20.10
2019,05,27,11,09,20.20
2019,05,27,11,10,20.20
2019,05,27,11,11,20.20
2019,05,27,11,12,20.20
2019,05,27,11,13,20.20
2019,05,27,11,14,20.20
2019,05,27,11,15,20.20
2019,05,27,11,16,20.20
2019,05,27,11,17,20.30
2019,05,27,11,18,20.30
2019,05,27,11,19,20.30
2019,05,27,11,20,20.40
2019,05,27,11,21,20.40
2019,05,27,11,22,20.40
2019,05,27,11,23,20.50
2019,05,27,11,24,20.50
2019,05,27,11,25,20.60
2019,05,27,11,26,20.60
2019,05,27,11,27,20.70
2019,05,27,11,28,20.70
2019,05,27,11,29,20.70
2019,05,27,11,30,20.60
2019,05,27,11,31,20.40
2019,05,27,11,32,20.20
2019,05,27,11,33,20.00
2019,05,27,11,34,19.70
2019,05,27,11,35,19.60
2019,05,27,11,36,19.40
2019,05,27,11,37,19.30
2019,05,27,11,38,19.10
2019,05,27,11,39,18.90
2019,05,27,11,40,18.80
2019,05,27,11,41,18.70
2019,05,27,11,42,18.60
2019,05,27,11,43,18.60
2019,05,27,11,44,18.50
2019,05,27,11,45,18.40
2019,05,27,11,46,18.40
2019,05,27,11,47,18.40
2019,05,27,11,48,18.40
2019,05,27,11,49,18.40
2019,05,27,11,50,18.50
2019,05,27,11,51,18.50
2019,05,27,11,52,18.60
2019,05,27,11,53,18.60
2019,05,27,11,54,18.50
2019,05,27,11,55,18.50
2019,05,27,11,56,18.60
2019,05,27,11,57,18.70
2019,05,27,11,58,18.80
2019,05,27,11,59,19.00
2019,05,27,12,00,19.00
2019,05,27,12,01,19.10
2019,05,27,12,02,19.10
2019,05,27,12,03,19.30
2019,05,27,12,04,19.40
2019,05,27,12,05,19.40
2019,05,27,12,06,19.50
2019,05,27,12,07,19.60
2019,05,27,12,08,19.70
2019,05,27,12,09,19.90
2019,05,27,12,10,20.00
2019,05,27,12,11,20.10
2019,05,27,12,12,20.20
2019,05,27,12,13,20.20
2019,05,27,12,14,20.10
2019,05,27,12,15,20.00
2019,05,27,12,16,20.00
2019,05,27,12,17,20.00
2019,05,27,12,18,20.00
2019,05,27,12,19,20.00
2019,05,27,12,20,20.10
2019,05,27,12,21,20.10
2019,05,27,12,22,20.20
2019,05,27,12,23,20.20
2019,05,27,12,24,20.20
2019,05,27,12,25,20.10
2019,05,27,12,26,20.00
2019,05,27,12,27,20.00
2019,05,27,12,28,20.00
2019,05,27,12,29,20.10
2019,05,27,12,30,20.20
2019,05,27,12,31,20.30
2019,05,27,12,32,20.50
2019,05,27,12,33,20.60
2019,05,27,12,34,20.80
2019,05,27,12,35,20.90
2019,05,27,12,36,21.10
2019,05,27,12,37,21.20
2019,05,27,12,38,21.30
2019,05,27,12,39,21.40
2019,05,27,12,40,21.50
2019,05,27,12,41,21.60
2019,05,27,12,42,21.70
2019,05,27,12,43,21.70
2019,05,27,12,44,21.60
2019,05,27,12,45,21.50
2019,05,27,12,46,21.40
2019,05,27,12,47,21.40
2019,05,27,12,48,21.40
2019,05,27,12,49,21.40
2019,05,27,12,50,21.40
2019,05,27,12,51,21.40
2019,05,27,12,52,21.40
2019,05,27,12,53,21.40
2019,05,27,12,54,21.50
2019,05,27,12,55,21.50
2019,05,27,12,56,21.70
2019,05,27,12,57,21.70
2019,05,27,12,58,21.80
2019,05,27,12,59,21.90
2019,05,27,13,00,22.00
2019,05,27,13,01,22.00
2019,05,27,13,02,22.20
2019,05,27,13,03,22.30
2019,05,27,13,04,22.30
2019,05,27,13,05,22.30
2019,05,27,13,06,22.10
2019,05,27,13,07,22.00
2019,05,27,13,08,21.80
2019,05,27,13,09,21.70
2019,05,27,13,10,21.60
2019,05,27,13,11,21.50
2019,05,27,13,12,21.40
2019,05,27,13,13,21.30
2019,05,27,13,14,21.20
2019,05,27,13,15,21.20
2019,05,27,13,16,21.10
2019,05,27,13,17,21.10
2019,05,27,13,18,21.10
2019,05,27,13,19,21.00
2019,05,27,13,20,20.90
2019,05,27,13,21,20.90
2019,05,27,13,22,20.80
2019,05,27,13,23,20.80
2019,05,27,13,24,20.80
2019,05,27,13,25,20.90
2019,05,27,13,26,20.90
2019,05,27,13,27,20.90
2019,05,27,13,28,20.90
2019,05,27,13,29,20.90
2019,05,27,13,30,20.90
2019,05,27,13,31,20.90
2019,05,27,13,32,20.80
2019,05,27,13,33,20.80
2019,05,27,13,34,20.80
2019,05,27,13,35,20.80
2019,05,27,13,36,20.80
2019,05,27,13,37,20.80
2019,05,27,13,38,20.90
2019,05,27,13,39,21.10
2019,05,27,13,40,21.20
2019,05,27,13,41,21.30
2019,05,27,13,42,21.30
2019,05,27,13,43,21.30
2019,05,27,13,44,21.30
2019,05,27,13,45,21.40
2019,05,27,13,46,21.50
2019,05,27,13,47,21.60
2019,05,27,13,48,21.60
2019,05,27,13,49,21.60
2019,05,27,13,50,21.70
2019,05,27,13,51,21.70
2019,05,27,13,52,21.70
2019,05,27,13,53,21.70
2019,05,27,13,54,21.60
2019,05,27,13,55,21.60
2019,05,27,13,56,21.60
2019,05,27,13,57,21.70
2019,05,27,13,58,21.70
2019,05,27,13,59,21.80
2019,05,27,14,00,21.90
2019,05,27,14,01,21.90
2019,05,27,14,02,22.00
2019,05,27,14,03,22.00
2019,05,27,14,04,22.20
2019,05,27,14,05,22.30
2019,05,27,14,06,22.40
2019,05,27,14,07,22.50
2019,05,27,14,08,22.60
2019,05,27,14,09,22.60
2019,05,27,14,10,22.80
2019,05,27,14,11,22.80
2019,05,27,14,12,22.90
2019,05,27,14,13,22.90
2019,05,27,14,14,23.00
2019,05,27,14,15,23.10
2019,05,27,14,16,23.20
2019,05,27,14,17,23.30
2019,05,27,14,18,23.30
2019,05,27,14,19,23.30
2019,05,27,14,20,23.30
2019,05,27,14,21,23.30
2019,05,27,14,22,23.20
2019,05,27,14,23,23.10
2019,05,27,14,24,23.00
2019,05,27,14,25,22.90
2019,05,27,14,26,22.90
2019,05,27,14,27,22.90
2019,05,27,14,28,22.90
2019,05,27,14,29,22.90
2019,05,27,14,30,22.90
2019,05,27,14,31,22.90
2019,05,27,14,32,22.90
2019,05,27,14,33,22.90
2019,05,27,14,34,22.80
2019,05,27,14,35,22.80
2019,05,27,14,36,22.80
2019,05,27,14,37,22.80
2019,05,27,14,38,22.80
2019,05,27,14,39,22.90
2019,05,27,14,40,22.90
2019,05,27,14,41,22.90
2019,05,27,14,42,22.90
2019,05,27,14,43,22.90
2019,05,27,14,44,23.00
2019,05,27,14,45,23.00
2019,05,27,14,46,23.00
2019,05,27,14,47,22.90
2019,05,27,14,48,23.00
2019,05,27,14,49,23.00
2019,05,27,14,50,23.10
2019,05,27,14,51,23.10
2019,05,27,14,52,23.20
2019,05,27,14,53,23.30
2019,05,27,14,54,23.30
2019,05,27,14,55,23.40
2019,05,27,14,56,23.50
2019,05,27,14,57,23.60
2019,05,27,14,58,23.70
2019,05,27,14,59,23.80
2019,05,27,15,00,23.90
2019,05,27,15,01,23.90
2019,05,27,15,02,24.00
2019,05,27,15,03,24.10
2019,05,27,15,04,24.10
2019,05,27,15,05,24.10
2019,05,27,15,06,24.10
2019,05,27,15,07,24.20
2019,05,27,15,08,24.20
2019,05,27,15,09,24.20
2019,05,27,15,10,24.20
2019,05,27,15,11,24.10
2019,05,27,15,12,24.10
2019,05,27,15,13,24.10
2019,05,27,15,14,24.10
2019,05,27,15,15,24.10
2019,05,27,15,16,24.10
2019,05,27,15,17,24.10
2019,05,27,15,18,24.10
2019,05,27,15,19,24.10
2019,05,27,15,20,24.10
2019,05,27,15,21,24.10
2019,05,27,15,22,24.20
2019,05,27,15,23,24.20
2019,05,27,15,24,24.30
2019,05,27,15,25,24.30
2019,05,27,15,26,24.30
2019,05,27,15,27,24.40
2019,05,27,15,28,24.40
2019,05,27,15,29,24.40
2019,05,27,15,30,24.40
2019,05,27,15,31,24.40
2019,05,27,15,32,24.40
2019,05,27,15,33,24.40
2019,05,27,15,34,24.30
2019,05,27,15,35,24.20
2019,05,27,15,36,24.10
2019,05,27,15,37,24.00
2019,05,27,15,38,23.90
2019,05,27,15,39,23.70
2019,05,27,15,40,23.60
2019,05,27,15,41,23.50
2019,05,27,15,42,23.40
2019,05,27,15,43,23.40
2019,05,27,15,44,23.40
2019,05,27,15,45,23.30
2019,05,27,15,46,23.30
2019,05,27,15,47,23.40
2019,05,27,15,48,23.40
2019,05,27,15,49,23.40
2019,05,27,15,50,23.40
2019,05,27,15,51,23.50
2019,05,27,15,52,23.50
2019,05,27,15,53,23.50
2019,05,27,15,54,23.60
2019,05,27,15,55,23.60
2019,05,27,15,56,23.70
2019,05,27,15,57,23.70
2019,05,27,15,58,23.70
2019,05,27,15,59,23.80
2019,05,27,16,00,23.80
2019,05,27,16,01,23.70
2019,05,27,16,02,23.70
2019,05,27,16,03,23.70
2019,05,27,16,04,23.70
2019,05,27,16,05,23.70
2019,05,27,16,06,23.80
2019,05,27,16,07,23.80
2019,05,27,16,08,23.90
2019,05,27,16,09,23.90
2019,05,27,16,10,24.00
2019,05,27,16,11,24.00
2019,05,27,16,12,23.90
2019,05,27,16,13,23.90
2019,05,27,16,14,23.90
2019,05,27,16,15,23.90
2019,05,27,16,16,24.00
2019,05,27,16,17,24.00
2019,05,27,16,18,24.00
2019,05,27,16,19,24.00
2019,05,27,16,20,24.10
2019,05,27,16,21,24.10
2019,05,27,16,22,24.20
2019,05,27,16,23,24.30
2019,05,27,16,24,24.40
2019,05,27,16,25,24.40
2019,05,27,16,26,24.50
2019,05,27,16,27,24.60
2019,05,27,16,28,24.60
2019,05,27,16,29,24.70
2019,05,27,16,30,24.70
2019,05,27,16,31,24.70
2019,05,27,16,32,24.80
2019,05,27,16,33,24.80
2019,05,27,16,34,24.80
2019,05,27,16,35,24.80
2019,05,27,16,36,24.80
2019,05,27,16,37,24.80
2019,05,27,16,38,24.80
2019,05,27,16,39,24.80
2019,05,27,16,40,24.80
2019,05,27,16,41,24.80
2019,05,27,16,42,24.80
2019,05,27,16,43,24.80
2019,05,27,16,44,24.80
2019,05,27,16,45,24.70
2019,05,27,16,46,24.70
2019,05,27,16,47,24.70
2019,05,27,16,48,24.70
2019,05,27,16,49,24.70
2019,05,27,16,50,24.60
2019,05,27,16,51,24.50
2019,05,27,16,52,24.50
2019,05,27,16,53,24.40
2019,05,27,16,54,24.30
2019,05,27,16,55,24.20
2019,05,27,16,56,24.10
2019,05,27,16,57,24.10
2019,05,27,16,58,24.10
2019,05,27,16,59,24.10
2019,05,27,17,00,24.10
2019,05,27,17,01,24.10
2019,05,27,17,02,24.20
2019,05,27,17,03,24.20
2019,05,27,17,04,24.30
2019,05,27,17,05,24.30
2019,05,27,17,06,24.30
2019,05,27,17,07,24.40
2019,05,27,17,08,24.40
2019,05,27,17,09,24.40
2019,05,27,17,10,24.40
2019,05,27,17,11,24.30
2019,05,27,17,12,24.20
2019,05,27,17,13,24.00
2019,05,27,17,14,23.90
2019,05,27,17,15,23.80
2019,05,27,17,16,23.70
2019,05,27,17,17,23.70
2019,05,27,17,18,23.60
2019,05,27,17,19,23.50